914  
ASUS44 KSHV 231310  
RWRSHV  
 
WEATHER ROUNDUP FOR THE FOUR STATE AREA  
NATIONAL WEATHER SERVICE SHREVEPORT LA  
800 AM CDT MON SEP 23 2019  
 
NOTE: "FAIR" INDICATES FEW OR NO CLOUDS BELOW 12000 FEET  
WITH NO SIGNIFICANT WEATHER AND/OR S TO VISIBILITY
.  
 
!LAZ001-LAZ014-TXZ097-231400  
SHREVEPORT...MONROE...TEXARKANA RADIOS  
 
CITY SKY/WX TMP DP RH WIND PRES REMARKS
 
SHREVEPORT SUNNY 74 73 97 S5 30.06R  
MONROE CLOUDY 72 70 93 CALM 30.09R  
NATCHITOCHES N/A 72 72 100 CALM 30.07R  
TEXARKANA CLOUDY 75 72 90 S5 30.07R  

 
 
!LAZ001-LAZ014-TXZ097-231400  
OTHER LOCATIONS...  
 
CITY SKY/WX TMP DP RH WIND PRES REMARKS
 
DOWNTOWN SHV MOSUNNY 77 73 87 S6 30.06R  
BOSSIER CITY N/A 73 73 100 SE5 30.06R  
RUSTON N/A 70 69 95 CALM 30.12R  
LITTLE ROCK LGT RAIN 76 71 85 CALM 30.06R  
EL DORADO N/A 72 71 97 CALM 30.08R  
JACKSON N/A 73 68 84 CALM 30.11R  
NEW ORLEANS N/A 79 72 79 NE3 30.08R  
HOUSTON PTCLDY 77 75 93 N3 30.04R  
LUFKIN FOG 73 72 96 CALM 30.06R VSB 1/2  
TYLER CLOUDY 79 74 84 SW12 30.05R  
DAL FT WORTH MOCLDY 78 72 81 S9 30.03R  

 
 
!TXZ136-TXZ165-231400  
TYLER...LUFKIN RADIOS  
 
CITY SKY/WX TMP DP RH WIND PRES REMARKS
 
TYLER CLOUDY 79 74 84 SW12 30.05R  
GILMER CLOUDY 75 73 92 CALM 30.06R  
LONGVIEW PTSUNNY 77 76 96 S5 30.05R  
LUFKIN FOG 73 72 96 CALM 30.06R VSB 1/2  

 
 
!TXZ136-TXZ165-231400  
OTHER LOCATIONS...  
 
CITY SKY/WX TMP DP RH WIND PRES REMARKS
 
NACOGDOCHES N/A N/A N/A N/A MISG N/A  
BEAUMONT N/A 80 78 94 E3 30.04R  
HOUSTON PTCLDY 77 75 93 N3 30.04R  
COLLEGE STN CLOUDY 79 77 94 SE5 30.05R  
AUSTIN MOCLDY 78 76 93 S3 30.04S  
DAL FT WORTH MOCLDY 78 72 81 S9 30.03R  
TEXARKANA CLOUDY 75 72 90 S5 30.07R  
SHREVEPORT SUNNY 74 73 97 S5 30.06R  
FORT POLK N/A 74 72 96 CALM 30.07R FOG  
LAKE CHARLES PTSUNNY 78 75 90 NE3 30.06R  

 
 
 
CLICK HERE TO GO TO PREVIOUS BULLETINS.

The Nexlab LA Page
The Nexlab TX Page
The Nexlab AR Page
The Nexlab OK Page Main Text Page